Flag for U.S.A. Weather past 2 weeks in Narragansett, Rhode Island, U.S.A.

Now
33 °F

Overcast.


Feels Like: 27 °F
Forecast: 33 / 43 °F
Wind: 7 mph from North

Location: Newport State Airport

Current Time: Dec 22, 2014 at 6:31:42 AM

Latest Report: Dec 22, 2014 at 5:53 AM


Visibility: 10 mi

Pressure: 30.35 "Hg

Humidity: 88%

Dew point: 30 °F

Location of NarragansettLocation

Historic Weather in Narragansett — Graph

°F

Narragansett temperature yesterday

Maximum temperature yesterday: 37 °F (at 9:53 AM)
Minimum temperature yesterday: 33 °F (at 8:53 PM)
Average temperature yesterday: 35 °F

Past Weeks' High & Low Weather Summary

 TemperatureHumidityPressure
High54 °F (Dec 9, 6:53 PM)100% (Dec 9, 6:53 PM)30.70 "Hg (Dec 9, 6:53 PM)
Low22 °F (Dec 8, 3:53 AM)33% (Dec 7, 6:53 PM)29.43 "Hg (Dec 10, 6:53 PM)
Average36 °F79%29.98 "Hg
* Reported Dec 7 4:01 AM — Dec 22 4:53 AM, Narragansett, Weather by CustomWeather, © 2014

Note: Actual official high and low records may vary slightly from our data, if they occured in-between our weather recording intervals... More about our weather records

Advertising

Narragansett weather history for previous 24 hours

 ConditionsComfort  
Time TempWeatherWind HumidityBarometerVisibility
4:53 AM
Dec 22
31 °FClear.6 mph92%30.33 "Hg10 mi
3:53 AM31 °FClear.7 mph92%30.32 "Hg10 mi
2:53 AM33 °FOvercast.7 mph85%30.33 "Hg10 mi
1:53 AM33 °FOvercast.9 mph88%30.33 "Hg10 mi
12:53 AM34 °FOvercast.7 mph88%30.33 "Hg10 mi
11:53 PM
Dec 21
34 °FOvercast.13 mph88%30.32 "Hg10 mi
10:53 PM34 °FMostly cloudy.8 mph92%30.33 "Hg10 mi
9:53 PM33 °FOvercast.6 mph92%30.34 "Hg10 mi
8:53 PM33 °FLow clouds.7 mph92%30.32 "Hg8 mi
7:53 PM34 °FLow clouds.8 mph92%30.32 "Hg8 mi
6:53 PM34 °FLow clouds.9 mph92%30.31 "Hg8 mi
5:53 PM34 °FLight rain. Low clouds.9 mph92%30.30 "Hg7 mi
4:53 PM34 °FLow clouds.9 mph92%30.29 "Hg9 mi
3:53 PM34 °FMostly cloudy.12 mph92%30.28 "Hg9 mi
2:53 PM35 °FMostly cloudy.12 mph88%30.27 "Hg8 mi
1:53 PM35 °FLow clouds.12 mph92%30.26 "Hg10 mi
12:53 PM36 °FLow clouds.10 mph92%30.25 "Hg9 mi
11:53 AM35 °FLight rain. Fog.12 mph96%30.26 "Hg5 mi
11:01 AM36 °FLight rain. Fog.9 mph92%30.27 "Hg6 mi
9:53 AM37 °FLow clouds.9 mph89%30.29 "Hg10 mi
8:53 AM36 °FMore clouds than sun.8 mph92%30.28 "Hg10 mi
7:53 AM36 °FMostly cloudy.7 mph92%30.27 "Hg10 mi
6:53 AM35 °FOvercast.10 mph92%30.26 "Hg10 mi
Weather by CustomWeather, © 2014

See weather overviewHow to use our weather pages